Time,TemperatureF,DewpointF,PressureIn,WindDirection,WindDirectionDegrees,WindSpeedMPH,WindSpeedGustMPH,Humidity,HourlyPrecipIn,Conditions,Clouds,dailyrainin,SoftwareType,DateUTC
2013-02-10 00:01:00,45.0,45.0,30.34,North,0,0.0,0.0,100,0.01,,,0.05,,2013-02-10 08:01:00,
2013-02-10 00:11:00,45.0,45.0,30.34,North,0,0.0,0.0,100,0.01,,,0.05,,2013-02-10 08:11:00,
2013-02-10 00:21:00,44.0,44.0,30.33,North,0,0.0,0.0,100,0.01,,,0.05,,2013-02-10 08:21:00,
2013-02-10 00:31:00,44.0,44.0,30.34,North,1,3.0,7.0,100,0.00,,,0.05,,2013-02-10 08:31:00,
2013-02-10 00:42:00,44.0,44.0,30.34,North,1,3.0,7.0,100,0.00,,,0.05,,2013-02-10 08:42:00,
2013-02-10 00:52:00,44.0,44.0,30.34,North,0,0.0,7.0,100,0.00,,,0.05,,2013-02-10 08:52:00,
2013-02-10 01:01:00,43.0,43.0,30.34,North,0,0.0,0.0,100,0.00,,,0.05,,2013-02-10 09:01:00,
2013-02-10 01:11:00,43.0,43.0,30.34,North,0,0.0,0.0,100,0.00,,,0.05,,2013-02-10 09:11:00,
2013-02-10 01:21:00,43.0,43.0,30.34,North,0,0.0,0.0,100,0.00,,,0.05,,2013-02-10 09:21:00,
2013-02-10 01:31:00,42.0,42.0,30.34,North,0,0.0,0.0,100,0.00,,,0.05,,2013-02-10 09:31:00,
2013-02-10 01:41:00,42.0,42.0,30.34,North,0,0.0,0.0,100,0.00,,,0.05,,2013-02-10 09:41:00,
2013-02-10 01:51:00,43.0,43.0,30.34,North,0,0.0,0.0,100,0.00,,,0.05,,2013-02-10 09:51:00,
2013-02-10 02:01:00,43.0,43.0,30.34,North,0,0.0,0.0,100,0.00,,,0.05,,2013-02-10 10:01:00,
2013-02-10 02:11:00,43.0,43.0,30.34,North,0,0.0,0.0,100,0.00,,,0.05,,2013-02-10 10:11:00,
2013-02-10 02:21:00,43.0,43.0,30.34,North,0,0.0,0.0,100,0.00,,,0.05,,2013-02-10 10:21:00,
2013-02-10 02:31:00,43.0,43.0,30.35,North,0,0.0,0.0,100,0.00,,,0.05,,2013-02-10 10:31:00,
2013-02-10 02:41:00,43.0,43.0,30.35,North,0,0.0,0.0,100,0.00,,,0.05,,2013-02-10 10:41:00,
2013-02-10 02:51:00,43.0,43.0,30.35,North,0,0.0,0.0,100,0.00,,,0.05,,2013-02-10 10:51:00,
2013-02-10 03:01:00,43.0,43.0,30.35,North,0,0.0,0.0,100,0.00,,,0.05,,2013-02-10 11:01:00,
2013-02-10 03:11:00,43.0,43.0,30.35,North,0,0.0,0.0,100,0.00,,,0.05,,2013-02-10 11:11:00,
2013-02-10 03:21:00,43.0,43.0,30.35,North,0,0.0,0.0,100,0.00,,,0.05,,2013-02-10 11:21:00,
2013-02-10 03:31:00,43.0,43.0,30.35,North,0,0.0,0.0,100,0.00,,,0.05,,2013-02-10 11:31:00,
2013-02-10 03:41:00,43.0,43.0,30.35,North,0,0.0,0.0,100,0.00,,,0.05,,2013-02-10 11:41:00,
2013-02-10 03:52:00,43.0,43.0,30.35,North,0,0.0,0.0,100,0.00,,,0.05,,2013-02-10 11:52:00,
2013-02-10 04:01:00,43.0,43.0,30.35,North,0,0.0,0.0,100,0.00,,,0.05,,2013-02-10 12:01:00,
2013-02-10 04:12:00,43.0,43.0,30.35,North,0,0.0,0.0,100,0.00,,,0.05,,2013-02-10 12:12:00,
2013-02-10 04:21:00,43.0,43.0,30.35,North,0,0.0,0.0,100,0.00,,,0.05,,2013-02-10 12:21:00,
2013-02-10 04:31:00,43.0,43.0,30.35,North,0,0.0,0.0,100,0.00,,,0.05,,2013-02-10 12:31:00,
2013-02-10 04:41:00,43.0,43.0,30.35,North,0,0.0,0.0,100,0.00,,,0.05,,2013-02-10 12:41:00,
2013-02-10 04:52:00,43.0,43.0,30.35,North,0,0.0,0.0,100,0.00,,,0.05,,2013-02-10 12:52:00,
2013-02-10 05:02:00,43.0,43.0,30.35,North,0,0.0,0.0,100,0.00,,,0.05,,2013-02-10 13:02:00,
2013-02-10 05:11:00,43.0,43.0,30.35,North,0,0.0,0.0,100,0.00,,,0.05,,2013-02-10 13:11:00,
2013-02-10 05:21:00,43.0,43.0,30.35,North,0,0.0,0.0,100,0.00,,,0.05,,2013-02-10 13:21:00,
2013-02-10 05:31:00,43.0,43.0,30.35,North,0,0.0,0.0,100,0.00,,,0.05,,2013-02-10 13:31:00,
2013-02-10 05:41:00,43.0,43.0,30.35,North,0,0.0,0.0,100,0.00,,,0.05,,2013-02-10 13:41:00,
2013-02-10 05:51:00,43.0,43.0,30.36,North,0,0.0,0.0,100,0.00,,,0.05,,2013-02-10 13:51:00,
2013-02-10 06:01:00,43.0,43.0,30.36,North,0,0.0,0.0,100,0.00,,,0.05,,2013-02-10 14:01:00,
2013-02-10 06:11:00,43.0,43.0,30.36,North,0,0.0,0.0,100,0.00,,,0.05,,2013-02-10 14:11:00,
2013-02-10 06:21:00,43.0,43.0,30.36,North,0,0.0,0.0,100,0.00,,,0.05,,2013-02-10 14:21:00,
2013-02-10 06:31:00,43.0,43.0,30.36,North,0,0.0,0.0,100,0.00,,,0.05,,2013-02-10 14:31:00,
2013-02-10 06:41:00,43.0,43.0,30.36,North,0,0.0,0.0,100,0.00,,,0.05,,2013-02-10 14:41:00,
2013-02-10 06:52:00,43.0,43.0,30.37,North,0,0.0,0.0,100,0.00,,,0.05,,2013-02-10 14:52:00,
2013-02-10 07:01:00,43.0,43.0,30.36,North,0,0.0,0.0,100,0.00,,,0.05,,2013-02-10 15:01:00,
2013-02-10 07:11:00,43.0,43.0,30.36,North,0,0.0,0.0,100,0.00,,,0.05,,2013-02-10 15:11:00,
2013-02-10 07:21:00,43.0,43.0,30.37,North,0,0.0,0.0,100,0.00,,,0.05,,2013-02-10 15:21:00,
2013-02-10 07:31:00,43.0,43.0,30.37,North,0,0.0,0.0,100,0.00,,,0.05,,2013-02-10 15:31:00,
2013-02-10 07:41:00,43.0,43.0,30.37,North,0,0.0,0.0,100,0.00,,,0.05,,2013-02-10 15:41:00,
2013-02-10 07:52:00,43.0,43.0,30.37,North,0,0.0,0.0,100,0.00,,,0.05,,2013-02-10 15:52:00,
2013-02-10 08:01:00,43.0,43.0,30.37,North,0,0.0,0.0,100,0.00,,,0.05,,2013-02-10 16:01:00,
2013-02-10 08:11:00,43.0,43.0,30.37,North,0,0.0,0.0,100,0.00,,,0.05,,2013-02-10 16:11:00,
2013-02-10 08:21:00,43.0,43.0,30.37,North,0,0.0,0.0,100,0.00,,,0.05,,2013-02-10 16:21:00,
2013-02-10 08:31:00,43.0,43.0,30.37,North,0,0.0,0.0,100,0.00,,,0.05,,2013-02-10 16:31:00,
2013-02-10 08:41:00,43.0,43.0,30.37,North,0,0.0,0.0,100,0.00,,,0.05,,2013-02-10 16:41:00,
2013-02-10 08:52:00,43.0,43.0,30.37,North,0,0.0,0.0,100,0.00,,,0.05,,2013-02-10 16:52:00,
2013-02-10 09:01:00,44.0,44.0,30.37,North,0,0.0,0.0,100,0.00,,,0.05,,2013-02-10 17:01:00,
2013-02-10 09:11:00,44.0,44.0,30.37,North,0,0.0,0.0,100,0.00,,,0.05,,2013-02-10 17:11:00,
2013-02-10 09:21:00,44.0,44.0,30.38,North,0,0.0,0.0,100,0.00,,,0.05,,2013-02-10 17:21:00,
2013-02-10 09:31:00,44.0,44.0,30.38,North,0,0.0,0.0,100,0.00,,,0.05,,2013-02-10 17:31:00,
2013-02-10 09:41:00,45.0,45.0,30.38,North,0,0.0,0.0,100,0.00,,,0.05,,2013-02-10 17:41:00,
2013-02-10 09:52:00,45.0,45.0,30.38,North,0,0.0,0.0,100,0.00,,,0.05,,2013-02-10 17:52:00,
2013-02-10 10:01:00,45.0,45.0,30.38,North,0,0.0,0.0,100,0.00,,,0.05,,2013-02-10 18:01:00,
2013-02-10 10:11:00,46.0,46.0,30.39,North,0,0.0,0.0,100,0.00,,,0.05,,2013-02-10 18:11:00,
2013-02-10 10:21:00,46.0,46.0,30.39,North,0,0.0,0.0,100,0.00,,,0.05,,2013-02-10 18:21:00,
2013-02-10 10:31:00,47.0,47.0,30.39,North,0,0.0,0.0,100,0.00,,,0.05,,2013-02-10 18:31:00,
2013-02-10 10:41:00,47.0,47.0,30.39,North,0,0.0,0.0,100,0.00,,,0.05,,2013-02-10 18:41:00,
2013-02-10 10:52:00,47.0,47.0,30.38,North,0,0.0,0.0,100,0.00,,,0.05,,2013-02-10 18:52:00,
2013-02-10 11:01:00,47.0,47.0,30.39,SW,219,1.0,3.0,100,0.00,,,0.05,,2013-02-10 19:01:00,
2013-02-10 11:11:00,47.0,47.0,30.38,North,0,0.0,0.0,100,0.00,,,0.05,,2013-02-10 19:11:00,
2013-02-10 11:21:00,47.0,47.0,30.38,North,0,0.0,0.0,100,0.00,,,0.05,,2013-02-10 19:21:00,
2013-02-10 11:31:00,47.0,47.0,30.38,North,0,0.0,0.0,100,0.00,,,0.05,,2013-02-10 19:31:00,
2013-02-10 11:42:00,47.0,47.0,30.38,NW,315,2.0,5.0,100,0.00,,,0.05,,2013-02-10 19:42:00,
2013-02-10 11:52:00,47.0,47.0,30.38,NW,315,2.0,5.0,100,0.00,,,0.05,,2013-02-10 19:52:00,
2013-02-10 12:01:00,47.0,47.0,30.37,NNW,336,2.0,6.0,100,0.00,,,0.05,,2013-02-10 20:01:00,
2013-02-10 12:11:00,47.0,47.0,30.37,NNE,28,2.0,6.0,100,0.00,,,0.05,,2013-02-10 20:11:00,
2013-02-10 12:21:00,47.0,47.0,30.37,NNE,28,2.0,6.0,100,0.00,,,0.05,,2013-02-10 20:21:00,
2013-02-10 12:31:00,47.0,47.0,30.37,NW,312,3.0,6.0,100,0.00,,,0.05,,2013-02-10 20:31:00,
2013-02-10 12:41:00,48.0,48.0,30.37,North,8,3.0,6.0,100,0.00,,,0.05,,2013-02-10 20:41:00,
2013-02-10 12:52:00,48.0,48.0,30.37,North,8,3.0,6.0,100,0.00,,,0.05,,2013-02-10 20:52:00,
2013-02-10 13:02:00,48.0,48.0,30.37,NNE,15,5.0,8.0,100,0.00,,,0.05,,2013-02-10 21:02:00,
2013-02-10 13:11:00,48.0,48.0,30.36,North,0,0.0,8.0,100,0.00,,,0.05,,2013-02-10 21:11:00,
2013-02-10 13:21:00,48.0,48.0,30.36,North,0,0.0,8.0,100,0.00,,,0.05,,2013-02-10 21:21:00,
2013-02-10 13:31:00,48.0,47.0,30.36,NW,315,5.0,8.0,98,0.00,,,0.05,,2013-02-10 21:31:00,
2013-02-10 13:41:00,48.0,46.0,30.36,North,1,5.0,9.0,93,0.00,,,0.05,,2013-02-10 21:41:00,
2013-02-10 13:51:00,48.0,46.0,30.36,North,1,5.0,9.0,93,0.00,,,0.05,,2013-02-10 21:51:00,
2013-02-10 14:01:00,48.0,45.0,30.35,NW,320,4.0,10.0,90,0.00,,,0.05,,2013-02-10 22:01:00,
2013-02-10 14:11:00,48.0,45.0,30.35,NNE,16,4.0,6.0,91,0.00,,,0.05,,2013-02-10 22:11:00,
2013-02-10 14:21:00,48.0,45.0,30.35,NNE,16,4.0,6.0,91,0.00,,,0.05,,2013-02-10 22:21:00,
2013-02-10 14:31:00,48.0,45.0,30.35,NNW,330,7.0,9.0,91,0.00,,,0.05,,2013-02-10 22:31:00,
2013-02-10 14:41:00,48.0,45.0,30.35,NNW,329,7.0,8.0,91,0.00,,,0.05,,2013-02-10 22:41:00,
2013-02-10 14:52:00,48.0,45.0,30.35,NNW,329,7.0,8.0,91,0.00,,,0.05,,2013-02-10 22:52:00,
2013-02-10 15:01:00,48.0,45.0,30.35,North,7,5.0,8.0,91,0.00,,,0.05,,2013-02-10 23:01:00,
2013-02-10 15:11:00,48.0,45.0,30.35,North,7,5.0,8.0,91,0.00,,,0.05,,2013-02-10 23:11:00,
2013-02-10 15:21:00,48.0,45.0,30.35,North,2,6.0,9.0,91,0.00,,,0.05,,2013-02-10 23:21:00,
2013-02-10 15:31:00,48.0,45.0,30.35,NNW,341,4.0,6.0,91,0.00,,,0.05,,2013-02-10 23:31:00,
2013-02-10 15:41:00,48.0,45.0,30.35,NW,306,2.0,9.0,90,0.00,,,0.05,,2013-02-10 23:41:00,
2013-02-10 15:52:00,48.0,45.0,30.35,NW,306,2.0,9.0,90,0.00,,,0.05,,2013-02-10 23:52:00,
2013-02-10 16:01:00,48.0,45.0,30.35,North,5,3.0,9.0,89,0.00,,,0.05,,2013-02-11 00:01:00,
2013-02-10 16:11:00,47.0,44.0,30.35,NNE,12,6.0,10.0,89,0.00,,,0.05,,2013-02-11 00:11:00,
2013-02-10 16:21:00,47.0,44.0,30.35,NNE,12,6.0,10.0,89,0.00,,,0.05,,2013-02-11 00:21:00,
2013-02-10 16:31:00,47.0,44.0,30.35,NNW,344,3.0,8.0,89,0.00,,,0.05,,2013-02-11 00:31:00,
2013-02-10 16:41:00,47.0,44.0,30.35,NE,47,6.0,9.0,90,0.00,,,0.05,,2013-02-11 00:41:00,
2013-02-10 16:52:00,47.0,44.0,30.35,NE,47,6.0,9.0,90,0.00,,,0.05,,2013-02-11 00:52:00,
2013-02-10 17:01:00,46.0,43.0,30.35,North,8,4.0,11.0,89,0.00,,,0.05,,2013-02-11 01:01:00,
2013-02-10 17:11:00,46.0,43.0,30.35,North,8,4.0,11.0,89,0.00,,,0.05,,2013-02-11 01:11:00,
2013-02-10 17:21:00,46.0,43.0,30.35,NE,35,6.0,13.0,89,0.00,,,0.05,,2013-02-11 01:21:00,
2013-02-10 17:31:00,46.0,43.0,30.35,NE,42,7.0,11.0,90,0.00,,,0.04,,2013-02-11 01:31:00,
2013-02-10 17:41:00,46.0,43.0,30.35,NNW,343,7.0,8.0,89,0.00,,,0.04,,2013-02-11 01:41:00,
2013-02-10 17:52:00,46.0,43.0,30.35,NNW,343,7.0,8.0,89,0.00,,,0.04,,2013-02-11 01:52:00,
2013-02-10 18:01:00,45.0,42.0,30.35,North,357,6.0,10.0,89,0.00,,,0.04,,2013-02-11 02:01:00,
2013-02-10 18:11:00,45.0,42.0,30.35,North,357,6.0,10.0,89,0.00,,,0.04,,2013-02-11 02:11:00,
2013-02-10 18:21:00,45.0,42.0,30.35,NNE,19,6.0,9.0,89,0.00,,,0.04,,2013-02-11 02:21:00,
2013-02-10 18:31:00,45.0,42.0,30.35,North,11,6.0,9.0,89,0.00,,,0.02,,2013-02-11 02:31:00,
2013-02-10 18:41:00,44.0,41.0,30.36,NNE,30,6.0,11.0,90,0.00,,,0.02,,2013-02-11 02:41:00,
2013-02-10 18:52:00,44.0,41.0,30.36,NNE,30,6.0,11.0,90,0.00,,,0.02,,2013-02-11 02:52:00,
2013-02-10 19:01:00,44.0,41.0,30.36,NNE,29,5.0,6.0,90,0.00,,,0.02,,2013-02-11 03:01:00,
2013-02-10 19:11:00,43.0,41.0,30.36,NE,42,2.0,7.0,91,0.00,,,0.02,,2013-02-11 03:11:00,
2013-02-10 19:21:00,43.0,41.0,30.36,NE,42,2.0,7.0,91,0.00,,,0.02,,2013-02-11 03:21:00,
2013-02-10 19:31:00,44.0,42.0,30.37,NE,35,5.0,7.0,92,0.00,,,0.02,,2013-02-11 03:31:00,
2013-02-10 19:41:00,44.0,42.0,30.36,NNE,12,4.0,7.0,92,0.00,,,0.02,,2013-02-11 03:41:00,
2013-02-10 19:52:00,44.0,42.0,30.36,NNE,12,4.0,7.0,92,0.00,,,0.02,,2013-02-11 03:52:00,
2013-02-10 20:01:00,44.0,42.0,30.37,North,9,5.0,10.0,92,0.00,,,0.02,,2013-02-11 04:01:00,
2013-02-10 20:11:00,44.0,42.0,30.37,North,9,5.0,10.0,92,0.00,,,0.02,,2013-02-11 04:11:00,
2013-02-10 20:21:00,44.0,42.0,30.36,North,0,0.0,10.0,91,0.00,,,0.02,,2013-02-11 04:21:00,
2013-02-10 20:31:00,44.0,42.0,30.36,North,2,6.0,6.0,91,0.00,,,0.02,,2013-02-11 04:31:00,
2013-02-10 20:41:00,44.0,42.0,30.37,NNW,336,6.0,8.0,91,0.00,,,0.02,,2013-02-11 04:41:00,
2013-02-10 20:52:00,44.0,42.0,30.37,NNW,336,6.0,8.0,91,0.00,,,0.02,,2013-02-11 04:52:00,
2013-02-10 21:01:00,44.0,42.0,30.37,North,357,6.0,9.0,91,0.00,,,0.02,,2013-02-11 05:01:00,
2013-02-10 21:11:00,44.0,41.0,30.36,NNE,18,2.0,9.0,90,0.00,,,0.02,,2013-02-11 05:11:00,
2013-02-10 21:22:00,44.0,41.0,30.36,NNE,18,2.0,9.0,90,0.00,,,0.02,,2013-02-11 05:22:00,
2013-02-10 21:31:00,45.0,42.0,30.36,NNE,12,2.0,9.0,90,0.00,,,0.01,,2013-02-11 05:31:00,
2013-02-10 21:41:00,45.0,42.0,30.37,North,11,3.0,6.0,88,0.00,,,0.01,,2013-02-11 05:41:00,
2013-02-10 21:52:00,45.0,42.0,30.37,North,11,3.0,6.0,88,0.00,,,0.01,,2013-02-11 05:52:00,
2013-02-10 22:01:00,44.0,41.0,30.37,NNE,19,2.0,8.0,88,0.00,,,0.01,,2013-02-11 06:01:00,
2013-02-10 22:11:00,44.0,41.0,30.37,NNE,19,2.0,8.0,88,0.00,,,0.01,,2013-02-11 06:11:00,
2013-02-10 22:21:00,45.0,42.0,30.37,NNE,19,5.0,8.0,88,0.00,,,0.01,,2013-02-11 06:21:00,
2013-02-10 22:31:00,44.0,41.0,30.37,North,1,2.0,7.0,88,0.00,,,0.01,,2013-02-11 06:31:00,
2013-02-10 22:41:00,44.0,41.0,30.36,North,8,1.0,4.0,88,0.00,,,0.01,,2013-02-11 06:41:00,
2013-02-10 22:52:00,44.0,41.0,30.36,North,8,1.0,4.0,88,0.00,,,0.01,,2013-02-11 06:52:00,
2013-02-10 23:01:00,44.0,41.0,30.36,North,0,0.0,6.0,88,0.00,,,0.01,,2013-02-11 07:01:00,
2013-02-10 23:11:00,44.0,41.0,30.37,North,0,0.0,6.0,88,0.00,,,0.01,,2013-02-11 07:11:00,
2013-02-10 23:21:00,44.0,41.0,30.37,North,0,0.0,6.0,88,0.00,,,0.01,,2013-02-11 07:21:00,
2013-02-10 23:31:00,44.0,41.0,30.37,North,0,0.0,0.0,89,0.00,,,0.01,,2013-02-11 07:31:00,
2013-02-10 23:41:00,44.0,41.0,30.37,North,0,0.0,0.0,90,0.00,,,0.01,,2013-02-11 07:41:00,
2013-02-10 23:51:00,44.0,41.0,30.37,North,0,0.0,0.0,90,0.00,,,0.01,,2013-02-11 07:51:00,